Flight Track Log - Related Links

Times and Time Zones

All times are in EDT time to prevent confusion due to time zone crossing. See the N700QA flight status page for this flight to view local times or setup timezone preferences in your user account.

Time Position Orientation Groundspeed Altitude Reporting Facility
EDT Latitude Longitude Course Direction KTS MPH feet Rate Location/Type
08:49PM 29.6314 -95.2897 96° East 149 171 1,000  Level Houston Center
08:50PM 29.6286 -95.2611 96° East 207 238 3,000 2,100 Climbing Houston Center
08:51PM 29.6469 -95.2611 360° North 265 305 3,800 1,964 Climbing Houston Center
08:51PM 29.6864 -95.2733 345° North 249 287 4,800 1,258 Climbing Houston Center
08:52PM 29.7156 -95.2803 348° North 247 284 5,100 1,677 Climbing Houston Center
08:53PM 29.7914 -95.3000 347° North 268 308 7,400 2,049 Climbing Houston Center
08:54PM 29.8706 -95.3194 348° North 284 327 9,300 2,000 Climbing Houston Center
08:55PM 29.9697 -95.3428 348° North 298 343 11,500 1,918 Climbing Houston Center
08:56PM 30.0542 -95.3628 348° North 306 352 13,200 1,659 Climbing Houston Center
08:57PM 30.1403 -95.3844 348° North 312 359 14,900 1,512 Climbing Houston Center
08:58PM 30.2272 -95.4044 349° North 317 365 16,300 1,279 Climbing Houston Center
08:59PM 30.3156 -95.4258 348° North 322 371 17,500 1,122 Climbing Houston Center
09:00PM 30.4058 -95.4469 349° North 328 377 18,600 927 Climbing Houston Center
09:01PM 30.4975 -95.4686 348° North 334 384 19,400 689 Climbing Houston Center
09:02PM 30.5903 -95.4908 348° North 340 391 20,000 293 Climbing Houston Center
09:03PM 30.6972 -95.5153 349° North 361 415 20,000  Level Houston Center
09:04PM 30.7997 -95.5381 349° North 370 426 20,000  Level Houston Center
09:05PM 30.9025 -95.5611 349° North 374 430 20,000  Level Houston Center
09:06PM 31.0061 -95.5844 349° North 376 433 20,000  Level Houston Center
09:07PM 31.1303 -95.6125 349° North 375 432 20,000  Level Houston Center
09:08PM 31.2336 -95.6367 349° North 376 433 20,000  Level Houston Center
09:09PM 31.3367 -95.6606 349° North 376 433 20,000  Level Houston Center
09:10PM 31.4306 -95.7144 334° Northwest 375 432 20,000 -98 Level Houston Center
09:11PM 31.5222 -95.7764 330° Northwest 376 433 19,800 -732 Descending Houston Center
09:12PM 31.6136 -95.8381 330° Northwest 379 436 18,500 -1,304 Descending Houston Center
09:13PM 31.6717 -95.8781 330° Northwest 385 443 17,800 -1,121 Descending Fort Worth Center
09:14PM 31.7392 -95.9281 328° Northwest 380 437 16,800 -1,250 Descending Fort Worth Center
09:15PM 31.8483 -95.9972 332° Northwest 374 430 15,300 -1,500 Descending Fort Worth Center
09:16PM 31.9306 -96.0522 330° Northwest 352 405 13,800 -1,450 Descending Fort Worth Center
09:17PM 32.0103 -96.1075 330° Northwest 335 386 12,400 -1,400 Descending Fort Worth Center
09:18PM 32.0881 -96.1603 330° Northwest 335 386 11,000 -1,250 Descending Fort Worth Center
09:19PM 32.1681 -96.2158 330° Northwest 335 386 9,900 -1,000 Descending Fort Worth Center
09:20PM 32.2478 -96.2614 334° Northwest 328 377 9,000 -450 Descending Fort Worth Center
09:21PM 32.3253 -96.3044 335° Northwest 315 362 9,000  Level Fort Worth Center
09:22PM 32.3989 -96.3506 332° Northwest 307 353 9,000  Level Fort Worth Center
09:23PM 32.4806 -96.3989 333° Northwest 307 353 9,000  Level Fort Worth Center
09:24PM 32.5542 -96.4447 332° Northwest 301 346 9,000 -300 Level Fort Worth Center
09:25PM 32.6339 -96.4933 333° Northwest 307 353 8,400 -700 Descending Fort Worth Center
09:26PM 32.6989 -96.5542 322° Northwest 302 348 7,600 -900 Descending Fort Worth Center
09:27PM 32.7619 -96.6228 318° Northwest 302 348 6,600 -879 Descending Fort Worth Center
09:28PM 32.8167 -96.6833 317° Northwest 293 337 5,900 -873 Descending Dallas / Fort Worth TRACON
09:28PM 32.8667 -96.7333 320° Northwest 288 331 5,000 -1,056 Descending Dallas / Fort Worth TRACON
09:29PM 32.9167 -96.7833 320° Northwest 274 315 4,000 -952 Descending Dallas / Fort Worth TRACON
09:31PM 32.9333 -96.8833 281° West 197 227 3,000 -864 Descending Dallas / Fort Worth TRACON
09:32PM 32.9000 -96.9167 220° Southwest 182 209 2,100 -950 Descending Dallas / Fort Worth TRACON
09:33PM 32.8833 -96.8833 121° Southeast 153 176 1,100 -1,000 Descending Dallas / Fort Worth TRACON
09:37PM 32.8471 -96.8518 161° South  Level Estimated

Login

Don't have an account? Register now (free) for customized features, flight alerts, and more!